Location: Atbuku
(36.4936°N, 30.4362°E)
Time: 10:46:16
(UTC+00:00)

Cosmos 1607 - Pass Details

Date: 16 March 2026
Orbit: 919 x 983 km, 65.0° (Epoch: 20 April)

Event Time Altitude Azimuth Distance (km) Brightness Sun altitude
Rises 18:21:35 0° 313° (NW) 3,657 8.0 -27.5°
Reaches altitude 10° 18:24:51 10° 297° (WNW) 2,716 7.3 -28.1°
Maximum altitude 18:29:11 19° 254° (WSW) 2,113 6.2 -28.9°
Drops below altitude 10° 18:33:32 10° 210° (SSW) 2,722 6.4 -29.7°
Enters shadow 18:36:25 - 195° (SSW) 3,535 6.9 -30.3°
